sat.trackr.live / text

‹ back to catalog

STARLINK-5928

NORAD 55958 · 2023-037AW

PAYLOAD ACTIVE UNKNOWN

§ Identity

Operator
Country
US
Launch date
2023-03-17
Launch site
AFWTR
Launch vehicle
Mass (kg)
RCS (m²)

Purposes: comms

External: N2YO · Heavens-Above · Gunter

§ Orbital elements

Epoch: 2026-05-25T04:50:32.007840Z

Period
96.11 min
Inclination
70.0005°
Eccentricity
0.0003084
Mean motion
14.98329810 rev/d
Perigee alt
569.9 km
Apogee alt
574.2 km
Semi-major
6,950.2 km
B*
-1.6410e-4
RAAN
71.5580°
Arg perigee
274.9217°
Mean anomaly
85.1590°
Rev number
17,593

§ Raw data

STARLINK-59281 55958U 23037AW  26145.20175935 -.00002050  00000+0 -16410-3 0  99902 55958  70.0005  71.5580 0003084 274.9217  85.1590 14.98329810175937

JSON: /api/v1/satellites/55958 · /tle

For live sub-satellite position, see the globe view (requires WebGL).

§ Visibility from observer

Set your observer location to see the next 7 days of passes ≥ 10°. The values pass through the URL so the page stays shareable.

No JS? Fill the form by hand. The geolocation button needs JavaScript.